Wind_Speed
27 27 27 27 28 28 29 29 29 29 30 30 31 31 32 32 32 33 34 34 34 35 36 36 36 37 36 36 37 37 38 38 38 38 38 37 37 37 36 36 36 36 36
28 28 29 29 29 30 30 30 30 31 31 32 32 32 33 33 34 35 35 36 36 37 38 38 39 39 40 40 40 40 40 41 40 40 40 40 40 40 39 39 39 39 39
30 30 30 31 31 31 31 31 32 32 33 34 34 34 34 35 35 35 36 37 37 38 39 39 41 41 42 42 42 42 42 43 43 43 43 43 43 42 42 42 42 41 41
32 32 33 33 34 34 34 34 34 34 35 35 36 36 36 37 37 37 37 37 38 39 40 40 40 41 42 43 43 43 44 44 45 45 45 45 45 44 44 44 44 43 43
34 35 35 36 36 36 36 36 36 36 36 37 37 38 38 38 38 38 38 39 39 40 41 41 41 41 42 43 44 44 44 45 46 46 46 46 46 46 46 46 45 45 45
36 37 37 37 37 37 37 37 37 37 38 38 39 39 39 39 39 40 40 40 40 41 42 42 42 42 43 43 44 44 45 45 46 46 46 46 46 47 47 46 46 46 46
37 37 38 37 37 37 37 37 38 39 39 40 40 40 40 41 41 41 41 41 42 42 42 43 43 44 44 44 44 43 44 45 46 46 46 46 45 46 47 46 46 46 46
38 38 38 37 37 37 38 39 39 40 41 41 41 42 42 42 42 42 42 43 43 43 44 44 45 45 45 45 45 44 44 44 45 45 46 46 46 47 47 47 47 48 48
39 39 39 39 39 39 39 40 40 41 42 42 42 42 43 43 43 43 43 44 44 44 44 44 45 45 45 45 44 43 44 44 45 45 46 47 47 46 47 47 48 49 49
38 38 40 40 40 40 40 41 41 42 43 43 43 44 43 43 43 43 43 44 44 44 44 44 44 45 44 44 44 44 45 45 45 46 46 47 47 47 47 47 47 48 49
38 38 39 40 40 41 42 42 43 44 44 44 44 44 44 43 43 43 43 43 44 44 44 44 44 44 45 44 45 45 46 46 47 47 47 47 47 48 47 48 49 49 49
39 39 39 39 40 41 42 43 44 44 44 44 44 44 44 43 43 43 43 43 44 44 44 44 44 45 45 45 46 46 47 47 48 48 48 48 48 49 49 49 50 50 50
39 39 40 41 42 42 43 43 44 45 45 44 44 44 44 43 43 44 44 44 44 44 44 44 44 45 45 45 46 46 46 47 48 48 48 48 48 49 50 49 50 50 51
40 41 42 43 43 43 44 44 44 44 44 44 43 44 44 44 43 44 44 44 44 44 45 44 45 46 46 46 46 46 46 46 47 47 48 49 50 50 50 50 50 50 51
41 41 43 43 43 44 44 44 45 44 43 43 43 43 43 43 44 44 44 45 45 45 45 45 46 46 46 46 46 46 46 47 47 48 49 49 50 50 50 51 51 51 51
43 42 42 43 44 44 44 43 44 43 43 42 42 42 42 42 43 43 44 45 46 46 46 46 46 46 46 47 47 47 48 48 48 49 49 49 49 50 51 50 50 51 51
44 44 44 44 44 43 43 43 43 42 42 41 41 41 41 42 42 43 43 44 45 46 46 45 46 46 46 47 47 48 49 49 49 49 49 49 49 50 51 50 50 50 50
45 45 44 43 43 43 43 43 42 42 42 42 41 41 41 42 43 43 44 44 45 46 46 46 46 46 46 47 47 47 47 48 48 48 49 49 49 49 49 49 49 49 49
45 45 44 43 42 43 43 43 43 43 43 42 41 42 42 42 43 43 44 44 44 45 46 46 45 46 46 46 47 46 46 46 46 47 48 49 49 49 49 49 49 49 49
44 44 44 44 43 43 42 42 42 42 42 42 41 42 42 43 42 43 43 44 45 45 46 45 45 45 46 46 46 46 45 46 46 47 48 49 50 50 50 49 49 48 48
44 44 44 44 44 43 42 42 41 41 41 41 41 41 42 42 43 43 44 44 45 45 45 45 45 45 45 45 45 46 46 46 47 47 48 49 50 50 49 48 47 47 46
43 44 44 44 43 43 43 42 41 41 41 41 41 41 42 42 42 43 44 45 45 45 45 44 44 44 43 44 45 45 46 46 47 47 47 47 47 47 47 46 46 46 46
42 42 43 43 42 42 42 42 42 42 42 42 42 42 42 43 43 43 43 44 44 44 44 44 44 44 44 44 45 45 45 45 45 44 44 44 44 44 44 44 44 44 45
42 42 41 41 41 41 41 41 42 42 42 42 42 43 43 43 43 42 42 43 43 43 43 44 44 44 44 44 44 44 44 43 42 42 42 41 41 41 42 43 43 44 44
41 41 41 40 41 41 41 41 42 42 42 42 42 43 43 43 43 42 42 42 42 43 43 44 44 45 45 44 44 43 42 41 40 40 41 40 39 39 40 41 41 42 42
41 41 40 40 41 42 42 42 42 42 42 42 42 42 42 43 43 43 43 43 43 44 44 45 45 44 44 43 42 41 40 39 39 38 38 38 37 37 36 36 36 37 38
Wind_Direction
260 261 261 263 264 265 266 266 266 268 269 270 272 272 273 274 275 276 276 276 276 276 276 276 275 274 273 273 273 273 273 272 272 271 271 271 271 269 270 270 270 270 271
261 262 263 264 264 265 266 266 268 269 270 272 272 273 274 274 275 275 276 276 277 277 276 275 275 275 274 273 273 272 272 272 271 271 270 270 270 269 269 269 270 270 271
262 263 265 265 265 265 267 268 269 270 272 272 273 274 275 275 275 276 276 277 277 277 276 274 274 274 274 273 273 272 272 272 271 271 271 270 270 269 269 269 270 270 270
262 264 265 266 266 267 268 269 271 272 273 273 273 274 275 275 276 276 277 278 278 279 277 275 274 274 274 273 273 273 273 272 272 272 272 271 270 270 269 269 269 269 270
263 264 265 266 267 267 269 270 271 272 272 273 274 274 275 276 276 277 278 278 279 279 278 276 276 277 276 274 273 273 273 273 272 272 272 271 271 270 269 269 269 270 270
263 265 265 266 267 269 270 271 272 273 273 273 274 274 275 276 277 278 279 279 279 279 278 278 278 278 277 275 274 274 274 274 273 273 272 272 271 270 271 270 269 270 270
266 267 266 267 269 270 271 272 272 273 273 273 273 274 275 277 278 278 279 279 280 280 279 279 279 278 277 276 276 276 274 274 273 273 273 272 271 271 271 270 270 270 270
267 268 267 269 271 272 273 273 274 274 275 275 274 275 275 276 277 278 278 279 280 280 280 279 279 278 277 277 277 276 275 274 273 273 272 272 272 272 271 270 270 269 269
268 268 268 270 271 272 273 274 275 275 276 276 276 277 276 276 276 277 278 278 279 280 280 280 279 279 278 277 277 275 274 274 274 273 273 273 273 272 271 270 270 270 270
267 268 269 270 271 272 273 274 275 276 276 276 277 278 279 278 277 277 277 278 279 280 280 280 280 279 278 278 276 275 275 273 274 274 274 274 273 273 272 271 271 272 272
268 269 270 271 271 272 274 274 275 276 277 277 277 278 278 278 278 278 278 278 279 280 280 280 280 278 277 277 276 276 275 274 274 274 274 274 273 273 273 272 272 273 273
269 269 270 271 272 272 273 275 275 276 276 277 277 278 278 279 279 279 279 280 280 279 279 280 280 278 277 277 276 276 275 274 274 274 274 274 274 273 273 273 273 273 273
268 268 270 271 273 274 275 276 276 275 275 276 275 276 276 277 278 279 280 280 280 280 279 279 279 279 278 277 276 276 276 275 275 275 275 274 274 274 274 274 274 274 274
269 270 271 272 273 273 274 275 274 274 274 275 274 275 275 276 277 279 280 280 281 280 280 279 278 279 278 277 276 276 276 276 275 274 274 274 274 274 275 274 275 274 274
269 271 272 273 273 273 274 274 273 273 274 274 274 275 275 276 276 278 280 280 281 281 280 279 279 279 278 277 277 277 276 276 275 275 275 275 275 274 275 275 275 275 275
270 272 273 273 273 273 274 275 274 274 274 275 275 275 276 277 278 280 280 280 281 281 280 281 280 280 280 279 278 278 277 277 277 277 276 275 275 275 275 275 276 276 275
270 272 274 274 273 273 273 274 275 274 274 275 274 274 276 278 279 280 281 281 282 282 282 281 281 281 281 281 281 280 279 277 276 276 275 275 275 276 276 276 276 276 275
270 271 272 273 273 272 273 273 274 274 273 273 275 276 277 278 279 280 281 282 283 282 282 282 282 281 281 281 282 281 280 278 276 275 274 274 275 276 277 277 276 276 276
270 271 271 271 271 272 273 273 272 272 273 274 275 277 278 278 279 282 282 282 283 284 284 283 283 282 281 281 281 281 281 279 278 277 276 275 275 277 277 276 276 276 276
270 271 271 271 271 271 272 273 272 271 272 274 276 277 278 279 280 282 282 282 283 284 284 284 284 283 282 282 281 280 280 279 278 278 278 278 277 277 277 277 276 276 276
269 270 270 270 270 270 271 273 273 273 273 273 275 276 278 280 281 282 283 284 284 285 285 285 284 283 283 282 281 281 280 279 279 280 280 280 279 277 276 276 275 276 276
269 270 270 270 270 269 270 271 273 274 275 275 276 277 279 280 281 283 284 285 285 286 286 286 285 284 284 283 283 283 281 281 281 281 281 280 278 277 276 275 276 276 277
269 270 270 270 270 269 270 271 272 274 275 276 277 278 278 280 281 283 285 285 286 286 287 287 286 286 285 285 285 284 283 282 282 282 282 280 279 277 275 275 275 276 278
268 270 271 270 269 269 270 272 273 274 275 277 278 279 279 280 281 283 284 285 286 286 287 287 288 287 287 286 285 284 283 282 281 281 282 282 280 278 276 275 275 277 278
268 269 270 269 269 269 271 272 273 274 275 276 278 279 279 280 281 282 283 284 286 286 286 287 288 288 287 286 285 284 283 282 281 281 281 282 280 278 278 277 277 277 277
268 269 269 269 270 270 271 272 274 274 275 276 277 278 278 279 280 281 283 284 284 286 287 287 287 288 287 285 284 284 283 282 282 281 281 281 280 279 278 277 277 277 278
Height
5806 5806 5807 5808 5808 5808 5808 5809 5809 5809 5809 5808 5808 5807 5807 5806 5805 5804 5803 5803 5802 5801 5800 5799 5798 5797 5796 5796 5795 5794 5794 5793 5792 5792 5791 5791 5790 5790 5789 5789 5789 5788 5788
5801 5801 5801 5802 5802 5802 5802 5802 5802 5802 5801 5801 5800 5800 5799 5798 5797 5796 5795 5794 5793 5792 5791 5790 5789 5788 5787 5787 5786 5785 5784 5784 5783 5782 5782 5781 5781 5781 5780 5780 5780 5780 5779
5794 5794 5794 5795 5795 5795 5795 5795 5794 5794 5794 5794 5793 5792 5791 5790 5790 5788 5787 5786 5784 5783 5782 5781 5780 5779 5778 5777 5775 5775 5774 5773 5773 5772 5772 5771 5771 5771 5770 5770 5770 5770 5769
5787 5788 5788 5788 5788 5788 5787 5787 5787 5787 5786 5786 5785 5784 5783 5782 5781 5780 5778 5777 5775 5774 5772 5771 5770 5768 5767 5766 5765 5764 5763 5763 5762 5761 5761 5761 5760 5760 5760 5759 5759 5759 5759
5779 5780 5780 5780 5780 5779 5779 5779 5779 5779 5778 5777 5776 5775 5774 5773 5772 5770 5769 5768 5766 5764 5762 5761 5759 5758 5757 5755 5754 5753 5752 5752 5751 5750 5749 5749 5749 5748 5748 5748 5748 5748 5748
5771 5771 5771 5771 5771 5771 5771 5770 5770 5770 5769 5768 5768 5767 5765 5764 5762 5761 5760 5758 5756 5754 5752 5751 5749 5748 5746 5745 5743 5742 5741 5740 5739 5739 5738 5737 5737 5737 5736 5736 5736 5736 5736
5762 5762 5762 5762 5762 5762 5762 5762 5761 5761 5760 5759 5758 5757 5756 5755 5753 5751 5750 5748 5746 5744 5742 5741 5739 5737 5735 5734 5732 5731 5730 5728 5727 5727 5726 5725 5725 5725 5725 5724 5725 5724 5724
5753 5753 5753 5753 5753 5753 5752 5752 5752 5751 5750 5749 5748 5747 5746 5746 5744 5741 5739 5738 5736 5734 5732 5730 5728 5726 5724 5722 5721 5720 5718 5717 5716 5715 5714 5714 5713 5713 5713 5712 5712 5712 5712
5743 5744 5744 5744 5743 5743 5743 5742 5742 5741 5740 5739 5737 5736 5735 5734 5733 5731 5729 5727 5725 5723 5721 5719 5717 5714 5712 5711 5710 5708 5707 5706 5705 5703 5702 5702 5701 5701 5700 5700 5699 5699 5699
5733 5734 5734 5733 5733 5733 5733 5732 5731 5730 5729 5728 5727 5725 5724 5722 5721 5720 5719 5716 5714 5712 5710 5708 5705 5703 5701 5699 5698 5697 5696 5694 5693 5692 5691 5690 5689 5688 5688 5687 5687 5686 5685
5724 5724 5724 5724 5723 5723 5722 5722 5721 5719 5718 5717 5716 5714 5713 5711 5709 5708 5707 5705 5703 5701 5699 5696 5694 5691 5690 5688 5687 5685 5684 5683 5681 5680 5679 5678 5677 5676 5675 5674 5673 5672 5671
5714 5714 5714 5714 5713 5712 5712 5711 5709 5708 5707 5705 5704 5703 5701 5700 5699 5697 5695 5693 5692 5690 5687 5685 5682 5680 5678 5676 5674 5673 5672 5670 5669 5667 5666 5665 5664 5663 5662 5661 5660 5659 5657
5704 5704 5704 5704 5703 5702 5701 5699 5698 5697 5695 5694 5693 5691 5690 5688 5686 5685 5683 5681 5680 5678 5676 5674 5671 5668 5666 5664 5662 5661 5659 5657 5656 5654 5653 5652 5651 5650 5649 5647 5646 5645 5644
5693 5693 5693 5693 5692 5691 5689 5688 5686 5685 5683 5682 5681 5679 5678 5677 5675 5673 5671 5669 5668 5667 5665 5662 5659 5657 5654 5652 5650 5648 5647 5645 5643 5642 5640 5639 5638 5637 5635 5634 5633 5631 5629
5683 5682 5682 5681 5681 5680 5678 5676 5675 5673 5672 5671 5669 5668 5666 5665 5663 5661 5659 5657 5656 5654 5653 5650 5648 5645 5642 5640 5638 5636 5634 5632 5630 5629 5627 5626 5624 5623 5621 5620 5618 5617 5615
5671 5671 5670 5670 5669 5668 5666 5665 5663 5662 5661 5659 5657 5656 5655 5653 5651 5650 5648 5645 5643 5642 5640 5638 5635 5633 5630 5628 5625 5623 5621 5619 5617 5615 5613 5612 5610 5609 5607 5605 5604 5602 5601
5660 5659 5659 5658 5657 5656 5655 5653 5652 5651 5650 5648 5646 5645 5644 5642 5640 5639 5636 5634 5632 5630 5628 5626 5623 5620 5618 5615 5612 5610 5607 5605 5603 5601 5600 5598 5596 5595 5593 5591 5589 5588 5586
5648 5647 5647 5646 5645 5645 5644 5642 5641 5640 5639 5637 5636 5634 5633 5631 5629 5627 5625 5623 5620 5618 5616 5614 5611 5608 5605 5603 5600 5597 5594 5592 5590 5588 5586 5584 5582 5581 5579 5577 5575 5574 5572
5636 5635 5635 5634 5634 5633 5632 5631 5630 5629 5628 5626 5625 5623 5622 5620 5618 5616 5614 5611 5608 5606 5603 5601 5599 5596 5593 5590 5587 5585 5582 5579 5577 5574 5572 5570 5569 5567 5565 5563 5561 5559 5558
5623 5623 5623 5622 5622 5621 5621 5619 5618 5617 5616 5615 5614 5612 5611 5609 5607 5605 5602 5600 5597 5594 5591 5588 5586 5583 5580 5577 5574 5572 5570 5567 5564 5562 5559 5557 5555 5553 5551 5549 5548 5546 5544
5611 5611 5611 5610 5610 5609 5609 5608 5607 5606 5605 5604 5603 5601 5599 5598 5595 5593 5591 5588 5585 5582 5579 5576 5573 5571 5568 5565 5562 5559 5557 5555 5552 5549 5547 5544 5541 5539 5537 5535 5533 5532 5530
5599 5599 5599 5598 5598 5597 5597 5596 5595 5595 5594 5593 5591 5589 5588 5586 5584 5581 5579 5576 5573 5570 5567 5564 5561 5558 5555 5552 5549 5546 5544 5542 5540 5538 5534 5531 5527 5525 5523 5522 5520 5519 5517
5588 5587 5587 5586 5586 5585 5585 5584 5583 5583 5582 5581 5580 5578 5576 5574 5572 5570 5567 5564 5561 5558 5555 5552 5549 5546 5543 5540 5537 5534 5531 5528 5526 5523 5520 5518 5515 5512 5510 5509 5507 5505 5504
5576 5576 5575 5575 5574 5574 5573 5572 5571 5571 5570 5569 5568 5566 5565 5562 5560 5558 5555 5552 5549 5546 5543 5540 5537 5534 5530 5527 5524 5521 5518 5516 5514 5510 5507 5505 5503 5500 5498 5496 5494 5492 5491
5564 5564 5563 5563 5563 5562 5561 5560 5559 5559 5558 5557 5556 5554 5552 5551 5548 5546 5544 5541 5538 5534 5531 5527 5524 5521 5518 5514 5511 5509 5506 5504 5502 5499 5495 5493 5491 5489 5487 5484 5482 5479 5478
5551 5551 5551 5551 5551 5550 5549 5548 5547 5547 5546 5545 5544 5542 5540 5538 5536 5533 5531 5529 5526 5523 5519 5516 5512 5509 5505 5502 5499 5496 5493 5491 5489 5487 5485 5482 5479 5477 5476 5474 5470 5468 5466